Weather in Ontario

United States     44°01′35″N   116°57′46″W
temp.,
°C
wind,
m/s
gust,
m/s
humid.,
%
clouds,
%
prec.,
mm/h
press.,
hPa
HPBL,
m
25 may, wed
wed2523:00+15s2238100 0.0 101415
02:00+13sse114395 0.0 101410
05:00+11s1147100 0.0 101510
08:00+17se113949 0.0 1015227
11:00+22ssw123014 0.0 10141007
14:00+26ne1525100 0.0 10111857
17:00+27se452627 0.0 10081254
20:00+19ene224921 0.0 100911
26 may, thu
thu2623:00+17nnw2249100 0.0 101011
02:00+15nnw2255100 0.0 101011
05:00+14nnw2258100 0.0 101011
08:00+18nne1147100 0.0 1010192
11:00+23ese2335100 0.0 1009785
14:00+27ssw2331100 0.0 10051119
17:00+26nw4540100 0.0 1003342
20:00+19s2262100 0.0 100419
27 may, fri
fri2723:00+20wsw3451100 0.0 100673
02:00+18wnw475197 0.1 1009152
05:00+13nw22785 0.1 101124
08:00+18wnw245962 0.0 1012622
11:00+21w4637100 0.0 10111955
14:00+22wsw6831100 0.0 10102687
17:00+20ssw4541100 0.0 10081395
20:00+14sse2376100 1.5 100962
28 may, sat
sat2823:00+12sse3490100 1.5 100983
02:00+13ssw4781100 0.4 1007188
05:00+12se3487100 0.6 1006143
08:00+12sse3482100 0.2 1006299
11:00+12sse3587100 1.2 1004308
14:00+12sse128293 6.7 1003297
17:00+11wnw101682100 14.4 1002902
20:00+10se258572 1.3 1002129
29 may, sun
sun2923:00+8w915669 1.4 1004493
02:00+8w8126698 0.0 1005563
05:00+7w51067100 0.1 1007467
08:00+9w795799 0.0 10071408
11:00+11wnw465599 0.1 10071469
14:00+13wnw244876 0.3 10061710
17:00+14nw674956 0.6 10051655
20:00+10nw6115796 0.1 1006544